Starlink 11332

operational
NORAD ID: 61539 Int'l Des: 2024-184 Owner: SPXS Country: US Constellation: starlink
LEOCIRCULAR

Starlink 11332について

説明を読み込み中...

リアルタイム位置

3D地球を読み込み中...

次回通過

高度履歴

Altitude vs Time

uPlot chart will show altitude changes over time

軌道要素

1 61539U 24184H 25351.12393696 -.00002830 00000-0 -18490-4 0 9999
2 61539 53.1598 282.9940 0001616 113.8959 246.2228 15.69717989 67451
Epoch: Dec 17, 2025 • Age: 12 hours

現在のステータス

高度 360.2 km
速度 7.70 km/s
衛星直下点 19.85°N, 20.01°W
打ち上げ日 Oct 15, 2024
運用期間 1.1 years
タイプ internet

技術仕様

分類 Payload
質量 960.00 kg
乾燥質量 910.00 kg
総質量 960.00 kg
長さ 0.30 m
直径 4.10 m
スパン 29.00 m
形状 Box + pan
製造者 SPXS
バスタイプ Starlink V2MD
フェーズステータス In Orbit
所有者/国 SPXS/US

大規模コンステレーション

Loading constellations...